Location: Wanzleben
(52.0609°N, 11.4408°E)
Time: 11:19:50
(UTC+00:00)

Cosmos 2263 Rocket - Pass Details

Date: 18 September 2020
Orbit: 822 x 850 km, 71.0° (Epoch: 25 October)

Event Time Altitude Azimuth Distance (km) Brightness Sun altitude
Rises 19:33:01 0° 237° (WSW) 3,353 5.7 -20.1°
Reaches altitude 10° 19:35:36 10° 245° (WSW) 2,426 5.0 -20.4°
Maximum altitude 19:40:46 38° 313° (NW) 1,249 3.6 -21.1°
Drops below altitude 10° 19:45:59 10° 22° (NNE) 2,452 4.7 -21.8°
Sets 19:48:38 0° 30° (NNE) 3,394 5.4 -22.1°
